Temp
14 14 15 15 15 15 15 15 15 15 15 15 15 15 14 14 14 13 14 14 14 14 13 13 13 13 13 13 13 14 14 14 13 13 12 11 11 10 10 9 9 10 11 11 11
14 14 15 15 15 15 15 15 15 15 15 15 15 15 15 14 14 13 14 14 14 14 14 14 14 14 13 14 14 13 14 13 13 12 12 12 11 10 10 10 11 11 11 11 11
14 14 14 15 15 15 15 15 15 16 16 16 15 15 15 14 14 14 14 14 14 14 14 14 14 14 13 13 14 14 14 13 13 13 12 12 11 11 10 10 10 12 11 11 11
14 14 14 15 15 15 15 15 15 16 16 16 16 15 15 14 14 14 14 14 14 14 14 14 14 13 14 14 14 13 14 13 13 13 12 11 11 11 11 11 11 11 11 11 11
14 14 14 14 15 15 15 15 15 16 16 16 16 15 15 15 14 14 14 14 14 14 14 14 14 14 14 14 14 14 13 14 14 13 13 12 11 11 11 10 11 11 10 10 11
14 14 14 14 14 15 15 15 15 15 16 16 16 15 15 14 15 14 14 14 14 14 14 14 15 15 14 14 14 14 13 13 14 14 13 12 12 11 12 11 11 11 10 10 11
14 14 14 14 14 15 15 15 15 15 16 16 16 16 15 14 15 14 14 14 14 14 14 14 14 15 15 15 16 14 14 13 13 13 14 12 13 12 11 12 11 11 10 9 10
14 14 14 14 14 15 15 15 15 15 15 16 16 16 15 15 15 14 14 14 14 14 14 14 14 15 15 16 15 15 15 17 14 13 14 14 14 13 13 12 11 10 9 9 10
13 14 14 14 14 14 14 15 15 15 15 15 15 15 15 15 15 15 14 14 14 14 14 14 14 15 15 16 18 17 18 17 16 15 15 14 14 14 13 12 11 10 10 9 10
13 13 14 14 14 14 14 14 14 15 15 15 15 15 15 15 15 15 15 15 15 14 14 14 14 15 16 17 18 17 17 18 17 15 15 14 14 14 14 12 11 11 10 10 10
13 13 13 13 13 13 13 14 14 14 14 14 14 15 15 15 14 15 15 15 15 15 14 14 15 17 16 16 16 17 17 18 17 16 14 14 14 14 14 13 12 11 11 10 10
13 13 13 13 13 13 13 13 13 14 14 14 15 14 15 15 14 14 14 14 15 15 14 14 16 16 15 16 16 17 18 18 17 18 17 15 14 14 15 14 12 12 11 11 11
13 13 12 12 12 12 12 13 13 13 14 14 14 14 14 14 13 14 14 13 13 15 15 16 16 16 15 16 17 18 18 18 18 17 17 16 16 15 15 14 12 12 12 11 11
12 12 12 12 12 12 12 12 13 13 14 13 14 14 14 14 13 14 13 13 14 15 15 15 16 15 16 16 17 19 17 17 17 18 19 17 20 16 14 15 15 14 12 12 11
12 12 12 12 12 12 12 12 13 14 17 13 13 14 14 13 14 14 13 13 14 15 14 16 15 15 16 17 17 18 17 17 17 19 19 18 19 17 15 14 14 15 13 12 11
12 12 12 12 12 12 12 12 13 14 15 13 13 13 13 13 13 14 14 13 13 14 14 15 14 15 16 16 16 17 17 17 18 19 21 19 19 20 17 16 16 16 15 13 13
12 12 12 12 12 12 12 13 13 16 14 14 14 13 14 14 14 14 14 14 15 15 16 16 15 15 16 16 17 17 19 21 21 21 21 19 19 19 18 17 16 17 16 15 14
12 12 12 12 12 12 12 13 15 14 14 14 14 14 15 14 14 14 14 15 14 15 16 18 17 16 16 16 18 18 19 20 20 21 22 19 21 19 18 17 18 17 16 15 15
11 11 12 12 12 13 13 14 13 13 13 14 14 15 14 14 15 15 15 15 15 15 16 17 17 16 16 16 17 18 18 19 20 20 20 21 20 19 18 17 18 17 16 16 16
11 12 12 12 13 13 13 13 13 13 14 14 15 15 16 15 15 15 15 14 14 15 15 16 17 16 16 17 17 17 18 19 19 20 20 21 20 18 17 18 16 17 17 16 15
11 12 12 13 13 12 13 12 12 13 14 14 14 14 14 14 15 15 14 14 15 14 15 16 17 17 16 17 18 17 18 18 19 19 21 21 20 18 18 17 17 17 16 16 16
11 11 12 13 13 13 12 13 13 12 13 13 13 13 13 13 14 14 14 13 15 15 14 15 17 18 17 16 17 16 17 18 20 18 19 19 19 18 18 17 17 17 17 16 16
11 12 12 12 13 12 12 12 12 12 13 12 12 13 13 13 13 13 13 14 15 15 14 15 17 17 17 16 16 17 16 17 18 19 19 19 18 15 17 16 17 17 17 16 16
11 11 11 12 12 12 12 11 11 12 12 12 11 12 12 13 13 13 13 13 14 14 15 15 16 18 19 18 18 17 16 16 17 19 19 19 18 16 16 16 16 16 16 16 16
11 11 11 10 11 11 11 11 11 11 11 11 11 11 11 13 13 12 12 13 13 14 14 14 16 15 15 16 16 16 16 16 17 16 17 17 16 13 15 16 16 16 16 16 16
10 10 10 11 11 10 10 10 10 10 11 10 10 11 11 11 11 11 11 12 12 12 13 14 15 15 16 15 15 16 15 15 15 15 15 15 15 14 14 15 15 15 16 15 16
11 10 10 10 10 10 10 10 10 10 10 10 10 10 10 10 11 11 11 11 11 12 12 13 14 14 16 14 15 15 16 15 14 14 14 15 13 14 13 13 13 13 14 15 15
Height
3181 3180 3180 3179 3178 3177 3176 3175 3174 3173 3173 3173 3173 3175 3177 3179 3181 3182 3184 3185 3185 3184 3183 3182 3181 3181 3181 3182 3183 3184 3186 3187 3188 3188 3188 3188 3189 3187 3188 3186 3187 3188 3190 3191 3192
3180 3179 3178 3178 3178 3177 3176 3175 3175 3174 3174 3173 3174 3174 3177 3180 3181 3183 3185 3185 3186 3186 3185 3185 3185 3184 3184 3185 3186 3186 3186 3188 3188 3188 3190 3190 3190 3188 3189 3189 3187 3188 3190 3193 3195
3178 3177 3177 3177 3177 3176 3176 3175 3175 3174 3174 3173 3174 3175 3176 3179 3183 3183 3184 3186 3187 3188 3187 3187 3187 3186 3190 3187 3188 3187 3188 3187 3187 3188 3190 3190 3191 3191 3191 3192 3190 3190 3191 3194 3196
3176 3175 3175 3175 3175 3175 3175 3174 3174 3174 3174 3174 3174 3175 3176 3179 3186 3183 3185 3186 3187 3188 3188 3188 3188 3191 3193 3192 3190 3189 3188 3187 3188 3188 3189 3191 3192 3193 3194 3194 3191 3192 3195 3197 3198
3173 3172 3171 3171 3172 3173 3173 3173 3173 3173 3173 3174 3174 3175 3176 3179 3180 3182 3184 3186 3187 3188 3189 3189 3190 3191 3193 3192 3190 3191 3189 3188 3188 3188 3189 3190 3191 3193 3194 3194 3193 3193 3196 3198 3199
3170 3169 3168 3168 3168 3170 3170 3171 3170 3171 3172 3172 3174 3175 3176 3180 3180 3182 3183 3185 3187 3188 3188 3190 3191 3191 3191 3191 3191 3189 3188 3188 3187 3187 3188 3189 3190 3193 3193 3194 3194 3195 3196 3199 3200
3167 3166 3165 3165 3165 3166 3167 3168 3168 3169 3170 3171 3173 3174 3176 3177 3178 3181 3183 3184 3186 3187 3188 3190 3191 3192 3191 3192 3189 3188 3190 3188 3187 3187 3188 3190 3191 3192 3193 3193 3194 3195 3198 3200 3202
3163 3163 3162 3161 3161 3162 3163 3164 3165 3166 3167 3169 3171 3172 3173 3175 3176 3179 3182 3184 3185 3186 3188 3190 3191 3192 3191 3190 3188 3189 3188 3189 3188 3187 3188 3190 3191 3190 3191 3193 3194 3196 3197 3200 3203
3160 3159 3159 3158 3158 3159 3160 3161 3162 3163 3164 3167 3169 3171 3173 3174 3175 3177 3180 3182 3185 3185 3188 3190 3191 3192 3192 3191 3191 3189 3188 3188 3188 3185 3186 3189 3190 3189 3190 3192 3194 3196 3197 3199 3202
3157 3156 3156 3155 3155 3155 3156 3157 3158 3160 3162 3164 3167 3172 3171 3172 3173 3175 3177 3180 3184 3186 3188 3190 3192 3194 3193 3192 3190 3190 3189 3187 3187 3186 3185 3188 3189 3188 3189 3191 3194 3195 3197 3198 3201
3154 3153 3152 3151 3152 3152 3153 3155 3159 3159 3159 3161 3163 3164 3167 3170 3172 3174 3176 3178 3182 3186 3190 3190 3194 3193 3193 3192 3191 3190 3188 3187 3186 3185 3185 3187 3188 3188 3188 3190 3192 3194 3196 3197 3200
3150 3150 3149 3148 3148 3149 3150 3152 3153 3156 3157 3158 3161 3163 3166 3168 3171 3172 3175 3178 3180 3186 3189 3191 3192 3193 3191 3191 3190 3190 3188 3188 3186 3185 3184 3185 3186 3186 3186 3188 3190 3191 3194 3196 3199
3149 3147 3146 3146 3146 3147 3148 3149 3151 3153 3155 3157 3160 3162 3166 3170 3173 3173 3175 3178 3181 3186 3187 3189 3190 3189 3191 3192 3191 3190 3189 3188 3187 3184 3182 3182 3182 3183 3185 3186 3188 3190 3192 3194 3197
3146 3145 3144 3144 3146 3145 3146 3148 3150 3152 3157 3159 3159 3162 3166 3169 3173 3172 3174 3180 3181 3185 3187 3188 3189 3188 3190 3192 3192 3188 3188 3188 3186 3185 3183 3182 3177 3181 3181 3183 3184 3187 3188 3191 3194
3146 3145 3143 3142 3143 3145 3147 3147 3149 3153 3150 3161 3159 3161 3165 3170 3171 3172 3173 3177 3182 3183 3185 3186 3186 3186 3188 3190 3190 3190 3188 3187 3186 3184 3182 3182 3179 3178 3179 3180 3181 3183 3186 3188 3190
3146 3144 3143 3143 3143 3145 3146 3148 3152 3155 3156 3160 3159 3162 3166 3170 3171 3171 3173 3176 3178 3181 3181 3182 3182 3183 3186 3187 3188 3188 3187 3185 3183 3181 3175 3181 3178 3174 3179 3179 3178 3180 3183 3186 3187
3146 3145 3144 3144 3145 3146 3148 3151 3155 3151 3159 3162 3162 3163 3168 3170 3172 3173 3174 3176 3179 3180 3179 3180 3181 3182 3183 3186 3187 3187 3185 3179 3177 3173 3173 3180 3178 3177 3179 3178 3178 3178 3180 3184 3186
3148 3147 3147 3147 3147 3148 3150 3153 3155 3158 3159 3160 3163 3165 3169 3170 3172 3172 3174 3177 3177 3178 3177 3176 3177 3179 3181 3183 3184 3184 3184 3180 3179 3172 3172 3178 3175 3179 3179 3177 3175 3177 3179 3181 3185
3152 3151 3151 3151 3150 3151 3153 3156 3158 3159 3161 3163 3165 3167 3168 3170 3172 3173 3174 3176 3176 3177 3179 3176 3176 3177 3178 3179 3183 3182 3182 3182 3179 3179 3176 3174 3177 3179 3180 3178 3177 3178 3179 3181 3183
3156 3155 3156 3155 3155 3155 3158 3157 3160 3159 3161 3165 3166 3166 3168 3169 3171 3172 3174 3173 3173 3172 3175 3177 3177 3178 3177 3178 3180 3182 3181 3180 3178 3176 3174 3172 3176 3179 3181 3179 3180 3180 3181 3182 3184
3158 3159 3160 3159 3160 3160 3162 3161 3162 3163 3163 3166 3167 3168 3168 3170 3171 3172 3173 3173 3171 3171 3172 3177 3176 3178 3178 3178 3178 3180 3180 3180 3179 3180 3174 3173 3175 3179 3180 3181 3180 3180 3182 3183 3185
3160 3164 3162 3162 3166 3163 3164 3163 3164 3166 3166 3166 3167 3168 3169 3170 3172 3172 3173 3172 3170 3169 3171 3174 3175 3175 3178 3178 3178 3178 3180 3179 3175 3180 3180 3179 3179 3178 3179 3180 3180 3180 3181 3182 3184
3162 3163 3164 3165 3168 3167 3166 3167 3167 3168 3167 3168 3168 3169 3169 3170 3173 3172 3171 3171 3170 3169 3172 3173 3174 3175 3178 3181 3179 3180 3180 3180 3179 3179 3177 3179 3178 3181 3178 3178 3179 3180 3180 3181 3182
3164 3167 3166 3166 3166 3168 3169 3168 3169 3168 3168 3168 3168 3169 3170 3171 3170 3172 3172 3171 3170 3170 3170 3172 3174 3172 3170 3172 3174 3178 3179 3179 3179 3177 3175 3178 3178 3180 3177 3176 3175 3176 3178 3179 3180
3163 3164 3165 3167 3167 3167 3168 3168 3169 3169 3169 3169 3170 3169 3170 3171 3171 3172 3172 3172 3171 3171 3171 3174 3173 3174 3173 3174 3176 3177 3178 3179 3179 3181 3181 3178 3180 3178 3176 3174 3173 3174 3173 3175 3176
3163 3164 3164 3165 3166 3167 3167 3168 3168 3168 3169 3169 3169 3168 3168 3170 3169 3169 3168 3171 3171 3170 3171 3173 3173 3173 3174 3174 3175 3176 3177 3178 3178 3178 3178 3179 3178 3175 3174 3171 3170 3171 3172 3173 3173
3163 3162 3163 3164 3165 3167 3166 3166 3166 3167 3166 3166 3166 3166 3167 3166 3165 3165 3165 3165 3166 3167 3168 3170 3171 3171 3170 3172 3174 3174 3173 3175 3176 3175 3177 3176 3175 3175 3173 3171 3169 3169 3169 3169 3171
Wind_Speed
6 6 5 5 6 6 6 6 5 4 3 3 4 9 16 20 17 11 7 8 10 12 14 15 15 12 12 14 12 7 6 9 7 9 10 9 8 7 10 11 8 11 16 19 18
8 7 6 4 3 3 4 4 4 4 4 3 3 7 15 22 18 11 9 9 10 13 15 16 16 18 18 11 7 6 4 3 5 7 10 10 8 9 12 8 11 13 18 21 18
11 10 8 6 4 2 1 1 2 3 2 2 3 7 13 23 19 14 11 9 9 11 12 13 16 16 8 13 8 14 9 12 7 8 10 11 10 8 10 7 12 11 20 19 18
12 11 10 9 6 5 4 3 2 1 2 2 3 7 12 23 12 19 13 9 8 8 9 11 12 8 8 8 8 5 4 8 9 6 9 10 10 9 8 7 11 13 13 16 17
12 12 12 10 9 7 6 6 6 4 3 3 4 8 12 22 16 24 16 11 8 7 5 7 9 8 7 6 7 5 1 5 5 6 8 7 8 7 8 10 7 12 11 14 19
13 13 12 11 10 9 8 7 8 7 6 6 5 8 12 15 18 25 19 13 10 7 4 2 7 7 7 5 6 5 2 1 3 4 4 6 6 9 8 9 4 9 13 12 16
14 15 14 13 11 9 8 8 10 9 9 9 8 9 13 16 17 26 22 16 13 10 9 4 3 6 8 5 10 4 4 1 0 1 3 6 4 8 10 9 6 9 15 15 14
13 14 14 14 13 10 8 8 10 11 10 11 10 10 13 14 13 27 25 19 16 13 11 7 4 5 8 6 8 6 4 6 2 3 5 7 5 9 9 11 12 17 19 18 15
13 13 12 12 13 11 9 7 10 12 12 12 12 11 12 15 16 22 25 24 20 16 12 10 7 6 6 7 2 6 11 9 2 2 4 8 6 6 9 12 16 19 20 19 18
14 14 13 12 11 10 9 8 8 12 13 13 14 11 12 18 16 18 23 27 24 20 16 12 8 3 4 6 11 13 13 9 5 3 5 7 7 5 9 14 17 18 20 21 22
13 12 11 11 10 9 8 7 7 10 14 19 17 19 13 16 15 15 17 22 27 23 15 13 6 5 3 6 8 10 9 6 8 3 5 6 7 9 10 15 19 18 20 22 23
11 9 8 9 8 7 6 8 8 10 12 18 13 19 11 18 17 15 15 15 23 18 16 9 10 7 5 7 7 6 5 6 6 11 3 3 7 11 11 13 17 18 20 22 23
8 6 6 6 6 5 5 7 8 9 7 13 16 18 16 16 10 12 12 12 13 18 12 14 5 9 6 4 6 0 5 6 5 8 6 10 4 10 13 13 16 19 18 21 25
5 5 5 4 3 4 6 8 8 10 7 3 13 15 17 13 7 9 11 10 10 14 13 12 13 14 10 8 6 6 5 6 4 7 10 6 3 6 12 17 19 19 22 21 25
6 4 4 1 3 5 6 8 11 15 5 4 14 17 18 11 6 7 13 13 8 11 10 7 6 8 12 9 6 6 6 5 7 9 9 2 6 4 8 16 22 22 22 21 23
7 4 2 3 5 7 8 12 14 3 5 4 9 16 16 8 6 6 8 11 11 8 11 14 11 11 8 8 10 10 8 9 7 7 7 5 7 12 1 5 14 21 23 22 20
8 5 5 6 9 10 15 12 4 2 8 7 8 15 14 11 5 7 12 12 6 7 10 10 16 14 11 11 12 9 10 9 4 6 6 4 5 9 5 1 9 16 21 24 22
8 8 10 11 13 13 13 11 6 7 7 9 11 12 14 11 5 4 12 11 10 5 4 5 11 15 12 14 7 7 9 11 3 2 3 2 2 8 6 4 8 14 18 20 25
13 13 12 10 11 13 15 6 6 6 8 12 12 10 10 9 6 8 8 6 8 10 7 3 3 6 9 11 13 8 12 6 8 6 9 3 6 11 10 12 4 12 19 21 22
11 11 15 12 13 14 12 12 9 14 18 8 6 5 9 8 10 10 8 1 3 11 11 4 6 4 2 8 10 12 5 6 7 2 5 6 3 10 9 8 8 7 15 18 19
11 12 11 14 13 13 11 14 12 9 9 6 6 7 7 8 9 10 7 1 1 4 14 7 4 7 5 3 4 6 8 3 1 4 3 4 8 8 9 3 3 5 10 14 16
10 5 10 9 6 9 10 14 12 8 7 7 8 8 7 7 7 6 6 3 3 4 7 11 6 5 4 5 8 4 3 4 11 8 1 6 4 6 7 8 1 7 10 18 20
8 9 8 8 5 7 9 10 10 8 4 4 4 6 7 5 3 6 4 4 0 0 5 8 8 10 9 6 4 4 2 1 3 6 2 10 8 7 16 16 4 7 11 14 17
10 4 5 3 3 5 5 5 4 5 6 6 5 2 3 3 4 5 3 2 1 0 4 13 6 10 5 2 6 7 4 1 4 10 4 10 10 10 17 16 12 7 11 16 17
5 6 8 4 6 6 4 5 3 2 2 1 2 2 2 3 3 4 2 1 4 3 3 4 6 5 5 2 4 6 6 4 6 8 11 13 11 9 16 18 14 9 13 17 20
5 5 5 6 6 4 2 4 1 2 3 3 2 6 5 4 3 5 5 4 6 7 4 5 7 6 7 6 7 9 8 7 7 6 7 7 5 12 14 15 11 6 6 7 16
4 2 4 5 6 3 5 5 5 4 6 5 6 6 5 9 11 12 12 13 12 13 9 8 9 10 17 10 10 14 15 11 7 6 5 7 4 7 11 12 9 5 3 4 9
Wind_Direction
332 343 358 23 36 44 46 51 53 63 71 107 141 150 161 163 151 145 135 104 82 61 60 64 64 70 77 127 138 128 122 123 118 119 127 123 118 105 124 97 136 148 165 166 162
316 318 321 334 2 24 32 41 49 56 68 84 126 150 161 165 157 157 145 117 89 79 73 72 71 66 67 100 109 112 57 108 132 133 148 129 125 111 112 78 104 150 165 160 162
308 307 304 304 303 306 313 7 35 57 71 76 118 147 157 165 162 164 150 134 106 92 77 74 77 75 56 71 109 94 57 88 134 137 151 146 135 125 125 96 102 101 150 156 157
302 299 295 291 282 269 250 250 224 165 106 120 123 143 157 166 169 165 164 153 130 104 84 73 77 55 68 83 105 72 52 32 57 99 144 152 154 127 118 128 110 109 150 157 159
305 300 296 290 283 269 246 232 233 210 183 168 159 154 164 174 183 169 171 164 154 129 93 74 75 68 62 72 78 67 214 74 53 63 131 167 156 157 141 135 84 126 133 159 159
304 300 297 292 284 272 257 234 230 219 201 197 180 168 163 175 187 178 174 180 184 173 193 120 61 58 55 36 50 23 73 188 44 71 64 150 148 154 167 158 120 130 141 156 159
299 296 293 291 284 274 257 234 228 222 208 205 194 186 179 190 199 185 184 192 197 196 220 230 23 42 27 16 22 33 41 131 18 47 88 165 162 169 179 177 172 161 162 164 163
301 293 290 285 282 277 264 237 224 219 209 206 202 195 199 188 190 190 193 197 201 213 228 248 289 338 9 17 7 16 51 56 212 175 175 143 146 180 180 183 180 176 177 175 166
302 298 295 287 278 270 263 243 223 215 206 202 202 195 206 192 190 197 197 205 204 218 229 250 276 305 345 358 48 23 9 21 28 90 145 163 148 188 179 187 182 182 184 183 177
301 296 290 284 279 272 254 239 220 212 204 195 199 189 205 200 196 197 206 210 210 218 231 244 263 280 328 357 8 340 346 1 15 265 157 180 165 136 167 186 187 186 190 189 188
302 294 290 283 275 269 253 232 214 218 204 193 195 198 206 199 198 201 208 210 211 215 218 237 224 231 286 328 327 336 338 3 33 18 166 203 190 183 168 181 191 192 194 193 193
308 295 285 282 272 258 235 217 212 211 205 205 201 201 201 188 196 211 208 203 204 206 210 233 228 242 274 313 328 346 336 33 26 15 22 256 221 209 200 192 195 196 195 196 193
311 303 299 292 270 246 220 204 199 196 187 204 202 195 187 183 184 214 208 194 197 201 218 223 217 228 261 304 328 325 23 25 12 2 2 349 240 204 208 200 197 202 201 198 198
344 328 318 297 232 209 195 187 183 168 141 197 190 188 179 175 189 210 196 187 200 204 225 234 236 237 258 259 284 289 1 355 345 327 3 344 25 188 202 206 205 204 203 201 200
3 352 319 249 172 169 170 170 166 154 179 142 178 177 171 155 201 208 199 194 194 216 212 209 229 238 235 236 260 308 330 347 311 303 304 93 260 82 189 212 211 206 205 202 202
12 12 66 119 139 142 143 145 145 163 94 137 171 176 169 174 172 194 177 179 199 219 233 225 243 219 226 240 254 281 304 291 297 278 242 19 296 119 136 230 213 211 204 199 196
41 65 90 110 124 125 124 125 115 35 123 124 154 162 169 169 145 184 186 190 182 212 225 243 242 234 233 241 253 272 271 281 259 198 40 357 270 54 33 197 202 208 206 199 195
61 83 99 111 117 120 115 77 95 90 95 138 139 153 174 176 188 147 179 195 211 192 254 240 187 210 233 223 260 238 289 298 273 296 61 334 22 64 22 346 198 202 198 198 197
93 92 96 103 115 118 92 107 92 104 105 127 129 143 152 179 158 146 167 202 223 226 237 226 179 160 217 220 229 253 257 276 283 239 263 76 103 78 49 46 126 184 195 198 198
93 97 106 100 108 114 87 104 88 118 134 116 131 136 153 172 164 164 160 291 241 220 204 210 187 141 159 168 220 226 253 228 204 230 286 130 207 56 25 70 63 192 204 204 202
105 103 105 117 114 82 105 98 87 105 140 93 97 113 121 150 170 173 185 242 342 231 192 195 227 175 147 200 141 167 199 218 353 301 307 260 101 32 12 33 112 141 197 198 190
122 113 131 120 87 104 99 105 99 82 95 89 90 90 104 123 153 173 189 199 307 9 204 198 222 202 145 169 150 135 148 242 274 152 71 309 19 353 340 11 151 177 186 193 195
149 131 142 145 110 97 92 94 92 76 138 89 103 114 125 132 117 146 149 176 166 92 160 193 218 168 188 193 193 190 183 49 280 268 225 309 85 51 321 329 310 193 192 195 197
150 139 168 188 186 131 109 77 99 85 85 97 94 108 122 114 123 148 145 181 131 80 175 178 227 250 277 163 162 197 198 311 300 287 358 295 318 334 313 331 321 235 201 200 199
163 177 187 167 168 170 168 145 94 97 123 127 51 79 131 215 212 195 206 248 255 248 210 201 241 228 256 233 210 215 233 254 297 306 303 317 312 324 322 325 324 302 229 205 201
196 185 186 213 199 177 180 198 155 243 216 279 230 259 268 258 231 241 268 267 240 242 279 262 246 231 232 228 229 243 240 249 282 300 296 297 278 324 349 338 327 354 283 228 214
74 158 191 210 210 195 228 235 244 283 272 258 277 264 268 246 251 248 241 240 255 251 255 257 239 245 251 228 250 257 252 252 263 268 270 302 286 319 349 351 332 323 290 226 206